Satellite: FO-70
Catalog number: 37380
Epoch time:      11230.47569632
Element set:    0245
Inclination:      071.9723 deg
RA of node:       262.1051 deg
Eccentricity:    0.0017478
Arg of perigee:   168.1486 deg
Mean anomaly:     192.0090 deg
Mean motion:   14.76390289 rev/day
Decay rate:       1.00e-06 rev/day^2
Epoch rev:           04005
Checksum:              285

/EX
SB KEPS @ AMSAT  $ORB11230.W
Orbital Elements  11230.WEATHER

HR AMSAT ORBITAL ELEMENTS FOR WEATHER SATELLITES
FROM WA5QGD FORT WORTH,TX August 18, 2011
Send Subscribe/unsubscribe to KEPS at http://www.amsat.org/mailman/listinfo/kep
BID: ORB11230.W
TO ALL RADIO AMATEURS BT

Satellite: NOAA-10
Catalog number: 16969
Epoch time:      11229.96262727
Element set:    0607
Inclination:      098.6151 deg
RA of node:       258.9010 deg
Eccentricity:    0.0013025
Arg of perigee:   047.2666 deg
Mean anomaly:     312.9610 deg
Mean motion:   14.27472925 rev/day
Decay rate:        5.3e-07 rev/day^2
Epoch rev:           29646
Checksum:              309

Satellite: NOAA-11
Catalog number: 19531
Epoch time:      11229.86396637
Element set:    0605
Inclination:      098.7520 deg
RA of node:       316.1576 deg
Eccentricity:    0.0011567
Arg of perigee:   016.2791 deg
Mean anomaly:     343.8751 deg
Mean motion:   14.14921998 rev/day
Decay rate:       2.43e-06 rev/day^2
Epoch rev:           18147
Checksum:              320

Satellite: NOAA-12
Catalog number: 21263
Epoch time:      11229.98489065
Element set:    0115
Inclination:      098.7511 deg
RA of node:       247.7196 deg
Eccentricity:    0.0012911
Arg of perigee:   011.7088 deg
Mean anomaly:     348.4389 deg
Mean motion:   14.25731701 rev/day
Decay rate:        6.9e-07 rev/day^2
Epoch rev:           05321
Checksum:              301

Satellite: MET-3/5
Catalog number: 21655
Epoch time:      11229.89630386
Element set:    0187
Inclination:      082.5601 deg
RA of node:       007.1649 deg
Eccentricity:    0.0013661
Arg of perigee:   009.0534 deg
Mean anomaly:     351.0872 deg
Mean motion:   13.17029189 rev/day
Decay rate:        5.1e-07 rev/day^2
Epoch rev:           96184
Checksum:              300

Satellite: MET-2/21
Catalog number: 22782
Epoch time:      11230.73461908
Element set:     179
Inclination:      082.5459 deg
RA of node:       273.2572 deg
Eccentricity:    0.0020983
Arg of perigee:   284.9043 deg
Mean anomaly:     074.9787 deg
Mean motion:   13.83660268 rev/day
Decay rate:        4.0e-07 rev/day^2
Epoch rev:           90720
Checksum:              319

Satellite: OKEAN-4
Catalog number: 23317
Epoch time:      11230.77432120
Element set:     641
Inclination:      082.5444 deg
RA of node:       314.6975 deg
Eccentricity:    0.0020115
Arg of perigee:   273.3413 deg
Mean anomaly:     086.5500 deg
Mean motion:   14.83126637 rev/day
Decay rate:       3.41e-06 rev/day^2
Epoch rev:           90982
Checksum:              269

Satellite: NOAA-14
Catalog number: 23455
Epoch time:      11229.95907938
Element set:    0596
Inclination:      098.8495 deg
RA of node:       311.9744 deg
Eccentricity:    0.0010215
Arg of perigee:   102.3405 deg
Mean anomaly:     257.8908 deg
Mean motion:   14.13828340 rev/day
Decay rate:        2.4e-07 rev/day^2
Epoch rev:           85780
Checksum:              323

Satellite: NOAA-15
Catalog number: 25338
Epoch time:      11229.81698332
Element set:    0921
Inclination:      098.6593 deg
RA of node:       215.1306 deg
Eccentricity:    0.0009673
Arg of perigee:   274.9470 deg
Mean anomaly:     085.0606 deg
Mean motion:   14.24941399 rev/day
Decay rate:        2.7e-07 rev/day^2
Epoch rev:           68950
Checksum:              329

Satellite: RESURS
Catalog number: 25394
Epoch time:      11229.93031414
Element set:    0884
Inclination:      098.3027 deg
RA of node:       229.5601 deg
Eccentricity:    0.0002456
Arg of perigee:   059.8375 deg
Mean anomaly:     300.3048 deg
Mean motion:   14.24237157 rev/day
Decay rate:        2.3e-07 rev/day^2
Epoch rev:           68109
Checksum:              284

Satellite: FENGYUN1
Catalog number: 25730
Epoch time:      11229.89426714
Element set:    0400
Inclination:      098.8207 deg
RA of node:       189.7428 deg
Eccentricity:    0.0023306
Arg of perigee:   138.1327 deg
Mean anomaly:     222.1634 deg
Mean motion:   14.08732930 rev/day
Decay rate:       4.21e-06 rev/day^2
Epoch rev:           63175
Checksum:              285

Satellite: OKEAN-0
Catalog number: 25860
Epoch time:      11229.94412143
Element set:    0415
Inclination:      097.8889 deg
RA of node:       194.7111 deg
Eccentricity:    0.0001492
Arg of perigee:   100.0994 deg
Mean anomaly:     260.0381 deg
Mean motion:   14.73816155 rev/day
Decay rate:        9.7e-07 rev/day^2
Epoch rev:           64975
Checksum:              305

Satellite: NOAA-16
Catalog number: 26536
Epoch time:      11229.83980417
Element set:    0403
Inclination:      099.1360 deg
RA of node:       261.6245 deg
Eccentricity:    0.0010086
Arg of perigee:   216.0196 deg
Mean anomaly:     144.0259 deg
Mean motion:   14.12638447 rev/day
Decay rate:        7.5e-07 rev/day^2
Epoch rev:           56206
Checksum:              292

